Regional Weather Roundup
Issued by NWS Boston, MA

Home | Current Version | Previous Version | Text Only | Print | Product List | Glossary On
Versions: 1 2 3 4 5 6 7 8 9 10 11 12 13 14 15 16 17 18 19 20 21 22 23 24 25 26 27 28 29 30 31 32 33 34 35 36 37 38 39 40 41 42 43 44 45 46 47 48 49 50
342
ASUS41 KBOX 241610
RWRBOX

REGIONAL WEATHER ROUNDUP
NATIONAL WEATHER SERVICE TAUNTON MA
1100 AM EST FRI FEB 24 2017

NOTE:  "FAIR" INDICATES FEW OR NO CLOUDS BELOW 12,000 FEET WITH NO
SIGNIFICANT WEATHER AND/OR OBSTRUCTIONS TO VISIBILITY.

MAZALL-241700-
EASTERN MASSACHUSETTS

CITY           SKY/WX    TMP DP  RH WIND       PRES   REMARKS
BOSTON         PTSUNNY   65  53  65 S12       29.93F
BEVERLY        PTSUNNY   58  50  75 SE9       29.93S
LAWRENCE       CLOUDY    64  52  64 S7        29.94F
BEDFORD        CLOUDY    64  49  57 SW9       29.91F
BLUE HILL        N/A     63  51  65 S15G23    29.93F
NORWOOD        MOSUNNY   67  53  61 S12G20    29.94F
MARSHFIELD     MOSUNNY   66  54  63 SW15G25   29.95S
PLYMOUTH       CLOUDY    65  52  62 SW18G28   29.97S
TAUNTON        NOT AVBL
NEW BEDFORD    CLOUDY    66  51  58 SW12G25   29.97S
$$

MAZALL-241700-
CAPE COD AND THE ISLANDS

CITY           SKY/WX    TMP DP  RH WIND       PRES   REMARKS
FALMOUTH       CLOUDY    64  52  63 MISG      29.99F
HYANNIS        CLOUDY    60  51  72 S12       29.98S
CHATHAM        MOSUNNY   54  49  83 SW8       30.01S
PROVINCETOWN   CLOUDY    56  49  77 SW15      29.98F
NANTUCKET      SUNNY     52  46  80 SW13      30.02S
MARTHAS VNYRD  SUNNY     59  50  72 SW17G24   30.01S
$$

MAZALL-241700-
CENTRAL AND WESTERN MASSACHUSETTS

CITY           SKY/WX    TMP DP  RH WIND       PRES   REMARKS
WORCESTER      MOSUNNY   60  49  66 SW14G21   29.93S
FITCHBURG      PTSUNNY   63  51  65 VRB7      29.91F
ORANGE         CLOUDY    53  50  89 CALM      29.91F
SPRINGFIELD    PTSUNNY   62  50  66 S12G20    29.90F
WESTFIELD      PTSUNNY   58  49  72 S5        29.91F
NORTH ADAMS    SUNNY     57  49  74 E10       29.88F
PITTSFIELD     PTSUNNY   53  50  89 CALM      29.88S
$$

RIZALL-241700-
RHODE ISLAND

CITY           SKY/WX    TMP DP  RH WIND       PRES   REMARKS
PROVIDENCE     PTSUNNY   67  52  58 SW13      29.97S
NEWPORT        MOSUNNY   59  51  75 SW8       29.98F
BLOCK ISLAND   SUNNY     57  50  77 SW14      30.01S
SMITHFIELD     CLOUDY    66  53  63 VRB6G17   29.96S
WESTERLY       SUNNY     61  49  64 SW8       30.00S
$$

CTZALL-241700-
CONNECTICUT

CITY           SKY/WX    TMP DP  RH WIND       PRES   REMARKS
BRADLEY INTL   PTSUNNY   65  52  62 S12       29.93S
HARTFORD       MOSUNNY   64  53  67 S10       29.94S
BRIDGEPORT     SUNNY     57  48  72 E3        29.96F
DANBURY        SUNNY     65  52  62 S10       29.94F
GROTON         SUNNY     57  50  77 S5        29.99S
NEW HAVEN      CLOUDY    57  50  77 S9        29.97S
CHESTER        FAIR      63  54  72 S9        29.98S
MERIDEN        MOSUNNY   63  50  62 S8        29.95F
WILLIMANTIC    MOSUNNY   66  53  63 SW15      29.96F
OXFORD         MOSUNNY   63  50  63 SW7G16    29.96F
$$

MEZ002-015-021-024-NHZ003-005-008-011-012-014-VTZ005-008-241700-
NORTHERN NEW ENGLAND

CITY           SKY/WX    TMP DP  RH WIND       PRES   REMARKS
PORTLAND ME    CLOUDY    46  44  93 SE5       29.92F
BANGOR ME      PTSUNNY   49  39  68 SE6       29.94F
CONCORD NH     CLOUDY    45  43  93 CALM      29.91F FOG
MANCHESTER NH  CLOUDY    53  49  86 SW3       29.90F FOG
NASHUA NH      PTSUNNY   55  52  89 E3        29.92F
PORTSMOUTH NH  PTSUNNY   49  49  99 SE6       29.91F FOG
JAFFREY NH     PTSUNNY   53  51  93 SW7       29.91F
KEENE NH       CLOUDY    43  42  97 CALM      29.92F FOG
BURLINGTON VT  CLOUDY    45  37  73 NW7       29.87F
MT. WASHINGTON PTSUNNY   39  37  93 SW36G46     N/A  WCI  26
$$

NYZ052-076-241700-
EASTERN NEW YORK

CITY           SKY/WX    TMP DP  RH WIND       PRES   REMARKS
ALBANY         PTSUNNY   59  50  72 S12       29.87F
NEW YORK CITY  MOSUNNY   68  53  58 S14       29.94F
$$

ANZALL-241700-
MARINE OBSERVATIONS

STATION/POSITION TIME  TEMP    WIND        PRES    VSBY  WAVE
                       AIR SEA DIR/SP/G                  HT/PER
                 (UTC) (F)     (DEG/KT/KT) (MB)    (MI)  (FT/S)
BOSTON BUOY      1550   46 43  120/  8/ 10 1013.3R         3/11
BUZZARDS BAY     1500   47     210/ 14/ 15 1016.2R
NANTUCKET SOUND  1550   43 40  210/  6/  6 1016.1R         1/ 9
MASS BAY-STELLWA 1504   44 42  170/  8/  8 1012.9F         3/11
ISLE OF SHOALS   1600   49     150/  6/  7 1012.9F
S OF BLOCK IS    1555      42                N/A           4/12
$$

......................KEY.........................
  SKY/WX - SKY CONDITION/PRESENT WEATHER
  TMP    - TEMPERATURE IN FAHRENHEIT
  DWPT   - DEWPOINT IN FAHRENHEIT
  RH     - RELATIVE HUMIDITY IN PERCENT
  WIND   - DIRECTION AND SPEED IN MPH
  PRES   - MEAN SEA LEVEL PRESSURE IN INCHES OF HG
  WCI    - WIND CHILL INDEX
  VSB    - VISIBILITY IN MILES
  HX     - HEAT INDEX
  TC     - TEMPERATURE IN CELSIUS
  VRB    - VARIABLE WIND DIRECTION
  N/A    - NOT AVAILABLE




USA.gov is the U.S. government's official web portal to all federal, state and local government web resources and services.